EW9248 Weather Reports


Display with metric or nautical units.
time (UTC)temp
F
wind
direction
speed
MPH
gust
MPH
rain 1hr
in
rain 24hr
in
rain mn
in
humidity
%
barometer
mb
20260505173336 75 202 8.0 10.0 0.00 0.00 0.00 53 1006.4
20260505172315 74 247 7.0 11.0 0.00 0.00 0.00 54 1006.3
20260505171335 74 247 5.0 10.0 0.00 0.00 0.00 52 1006.2
20260505170315 75 247 6.0 10.0 0.00 0.00 0.00 52 1006.1
20260505164435 76 225 5.0 8.0 0.00 0.00 0.00 49 1005.7
20260505163355 76 247 12.0 19.0 0.00 0.00 0.00 46 1006.0
20260505162436 76 202 6.0 12.0 0.00 0.00 0.00 48 1006.1
20260505161315 76 247 12.0 19.0 0.00 0.00 0.00 48 1006.5
20260505160315 76 247 10.0 16.0 0.00 0.00 0.00 48 1006.4
20260505153315 76 292 5.0 16.0 0.00 0.00 0.00 51 1006.7
20260505152316 76 247 7.0 10.0 0.00 0.00 0.00 51 1006.6
20260505151315 75 270 2.0 5.0 0.00 0.00 0.00 55 1006.6
20260505150455 75 270 8.0 12.0 0.00 0.00 0.00 52 1006.6
20260505140315 71 225 8.0 14.0 0.00 0.00 0.00 59 1006.9
20260505124315 65 225 2.0 4.0 0.00 0.00 0.00 68 1007.7
20260505122318 63 225 1.0 5.0 0.00 0.00 0.00 71 1008.0
20260505121417 62 0.0 0.0 0.00 0.00 0.00 78 1007.8
20260505120358 62 0.0 0.0 0.00 0.00 0.00 78 1007.8
20260505115317 61 0.0 0.0 0.00 0.00 0.00 78 1007.7
20260505114437 62 0.0 0.0 0.00 0.00 0.00 74 1007.6
20260505113317 61 0.0 0.0 0.00 0.00 0.00 76 1007.7
20260505112317 61 0.0 0.0 0.00 0.00 0.00 74 1007.7
20260505111337 58 0.0 1.0 0.00 0.00 0.00 80 1007.6
20260505110316 59 292 2.0 3.0 0.00 0.00 0.00 80 1007.9
20260505101336 52 0.0 0.0 0.00 0.00 0.00 86 1007.7
20260505100316 51 0.0 0.0 0.00 0.00 0.00 86 1007.5
20260505095316 51 0.0 0.0 0.00 0.00 0.00 85 1007.3
20260505094317 51 0.0 0.0 0.00 0.00 0.00 83 1007.2
20260505093316 52 0.0 0.0 0.00 0.00 0.00 83 1007.1
20260505092316 53 225 1.0 2.0 0.00 0.00 0.00 83 1007.0
20260505091316 53 0.0 0.0 0.00 0.00 0.00 82 1006.9
20260505090316 53 0.0 0.0 0.00 0.00 0.00 81 1006.9
20260505085337 53 0.0 1.0 0.00 0.00 0.00 82 1006.8
20260505084337 53 0.0 0.0 0.00 0.00 0.00 82 1006.7
20260505083316 53 0.0 0.0 0.00 0.00 0.00 81 1006.6
20260505082336 53 0.0 1.0 0.00 0.00 0.00 81 1006.7
20260505081417 54 0.0 0.0 0.00 0.00 0.00 79 1006.8
20260505080316 55 0.0 1.0 0.00 0.00 0.00 77 1006.9
20260505075316 56 0.0 0.0 0.00 0.00 0.00 76 1006.9
20260505074336 57 0.0 0.0 0.00 0.00 0.00 73 1007.0
20260505073357 57 0.0 0.0 0.00 0.00 0.00 74 1007.0
20260505072316 58 0.0 0.0 0.00 0.00 0.00 73 1007.0
20260505071336 57 0.0 0.0 0.00 0.00 0.00 72 1007.0
20260505070417 59 0.0 0.0 0.00 0.00 0.00 69 1007.1
20260505065356 60 0.0 0.0 0.00 0.00 0.00 66 1007.2
20260505064336 61 0.0 0.0 0.00 0.00 0.00 65 1007.2
20260505063337 58 0.0 2.0 0.00 0.00 0.00 69 1007.2
20260505062317 58 202 1.0 3.0 0.00 0.00 0.00 69 1007.2
20260505061316 58 0.0 0.0 0.00 0.00 0.00 70 1007.1
20260505060316 60 0.0 0.0 0.00 0.00 0.00 67 1007.1
20260505055316 60 0.0 0.0 0.00 0.00 0.00 66 1007.3
20260505054316 57 90 1.0 2.0 0.00 0.00 0.00 74 1007.3
20260505053357 57 0.0 0.0 0.00 0.00 0.00 74 1007.2
20260505052316 58 0.0 0.0 0.00 0.00 0.00 73 1007.4
20260505051356 57 0.0 0.0 0.00 0.00 0.00 72 1007.3
20260505050356 58 0.0 1.0 0.00 0.00 0.00 72 1007.3
20260505041316 58 0.0 1.0 0.00 0.00 0.00 67 1007.2
20260505040356 58 0.0 0.0 0.00 0.00 0.00 69 1007.1
20260505035316 59 0.0 1.0 0.00 0.00 0.00 65 1007.2
20260505034337 60 225 1.0 2.0 0.00 0.00 0.00 65 1007.1
20260505033316 58 0.0 1.0 0.00 0.00 0.00 66 1007.1
20260505032317 61 0.0 1.0 0.00 0.00 0.00 61 1007.2
20260505031336 62 0.0 1.0 0.00 0.00 0.00 58 1007.1
20260505030316 64 292 1.0 3.0 0.00 0.00 0.00 54 1007.2
20260505025336 64 202 1.0 2.0 0.00 0.00 0.00 54 1007.2
20260505024338 64 202 1.0 4.0 0.00 0.00 0.00 54 1007.3
20260505023336 64 202 3.0 6.0 0.00 0.00 0.00 54 1007.3
20260505022316 65 202 3.0 4.0 0.00 0.00 0.00 53 1007.4
20260505021357 63 0.0 0.0 0.00 0.00 0.00 57 1007.4
20260505020316 64 225 2.0 2.0 0.00 0.00 0.00 54 1007.3
20260505015316 64 180 2.0 5.0 0.00 0.00 0.00 55 1007.3
20260505014316 62 180 1.0 2.0 0.00 0.00 0.00 58 1007.1
20260505013337 61 180 1.0 2.0 0.00 0.00 0.00 60 1007.0
20260505012316 62 0.0 1.0 0.00 0.00 0.00 57 1006.9
20260505011336 62 0.0 0.0 0.00 0.00 0.00 56 1006.8
20260505010336 65 0.0 1.0 0.00 0.00 0.00 51 1006.9
20260505005337 66 135 1.0 2.0 0.00 0.00 0.00 50 1006.7
20260505004336 66 225 3.0 4.0 0.00 0.00 0.00 48 1006.6
20260505003436 68 0.0 0.0 0.00 0.00 0.00 48 1006.5
20260505002337 67 180 3.0 3.0 0.00 0.00 0.00 48 1006.4
20260505001316 68 180 1.0 2.0 0.00 0.00 0.00 47 1006.2
20260505000358 68 225 1.0 2.0 0.00 0.00 0.00 46 1006.1
20260504235336 69 225 3.0 5.0 0.00 0.00 0.00 44 1006.0
20260504234317 69 135 2.0 3.0 0.00 0.00 0.00 44 1005.8
20260504233356 70 0.0 0.0 0.00 0.00 0.00 44 1005.7
20260504232316 70 225 3.0 8.0 0.00 0.00 0.00 43 1005.6
20260504231317 71 157 2.0 2.0 0.00 0.00 0.00 42 1005.5
20260504230316 72 180 3.0 4.0 0.00 0.00 0.00 42 1005.5
20260504225316 72 135 3.0 4.0 0.00 0.00 0.00 40 1005.3
20260504224316 73 180 4.0 7.0 0.00 0.00 0.00 35 1005.3
20260504223316 73 202 3.0 4.0 0.00 0.00 0.00 37 1005.4
20260504222316 74 247 5.0 8.0 0.00 0.00 0.00 35 1005.4
20260504221356 74 225 2.0 5.0 0.00 0.00 0.00 36 1005.4
20260504220359 73 247 5.0 9.0 0.00 0.00 0.00 37 1005.4
20260504215316 73 225 3.0 5.0 0.00 0.00 0.00 36 1005.5
20260504214336 74 247 7.0 14.0 0.00 0.00 0.00 36 1005.8
20260504213336 73 247 6.0 13.0 0.00 0.00 0.00 37 1005.7
20260504212436 73 202 6.0 10.0 0.00 0.00 0.00 37 1005.7
20260504211315 74 270 6.0 9.0 0.00 0.00 0.00 39 1005.6
20260504210316 73 247 8.0 12.0 0.00 0.00 0.00 38 1005.9
20260504205316 73 270 3.0 8.0 0.00 0.00 0.00 38 1006.0
20260504204316 73 247 10.0 15.0 0.00 0.00 0.00 37 1006.1
20260504203336 72 270 6.0 12.0 0.00 0.00 0.00 39 1006.2
20260504202336 71 225 4.0 10.0 0.00 0.00 0.00 43 1006.2
20260504201335 72 202 4.0 6.0 0.00 0.00 0.00 40 1006.4
20260504200315 71 247 4.0 5.0 0.00 0.00 0.00 43 1006.5
20260504195436 70 247 7.0 12.0 0.00 0.00 0.00 41 1006.6
20260504194356 70 270 8.0 12.0 0.00 0.00 0.00 45 1006.9
20260504193315 71 225 3.0 6.0 0.00 0.00 0.00 40 1006.9
20260504192356 70 247 6.0 8.0 0.00 0.00 0.00 41 1007.0
20260504191316 71 247 9.0 14.0 0.00 0.00 0.00 41 1007.3
20260504190315 72 270 6.0 10.0 0.00 0.00 0.00 41 1007.4
20260504185316 71 247 4.0 7.0 0.00 0.00 0.00 47 1007.6
20260504184355 71 225 3.0 8.0 0.00 0.00 0.00 43 1007.5
20260504183316 72 315 3.0 6.0 0.00 0.00 0.00 45 1007.5
20260504182315 70 202 4.0 5.0 0.00 0.00 0.00 43 1007.7
20260504181316 70 247 5.0 7.0 0.00 0.00 0.00 45 1007.7
20260504180355 69 202 7.0 16.0 0.00 0.00 0.00 44 1007.8
20260504175316 69 202 5.0 7.0 0.00 0.00 0.00 44 1008.0
20260504174315 70 202 4.0 7.0 0.00 0.00 0.00 47 1008.1